Location: Banff
(51.1667°N, 115.5667°W)
Time: 04:15:13
(UTC+00:00)

Explorer 7 - Pass Details

Date: 29 November 2020
Orbit: 484 x 678 km, 50.3° (Epoch: 16 January)

Event Time Altitude Azimuth Distance (km) Brightness Sun altitude
Exits shadow 14:20:21 11° 275° (W) 1,762 8.8 -9.3°
Maximum altitude 14:24:03 40° 206° (SSW) 789 7.6 -8.8°
Drops below altitude 10° 14:27:45 10° 136° (SE) 1,733 10.7 -8.3°
Sets 14:29:58 0° 129° (SE) 2,593 12.1 -7.9°
